This demonstration page uses our WeatherBlox Daily Observations layout. Learn more.

Left ArrowRight Arrow

39.29038, -76.61219

Hourly Observations for August 14, 2015

Temp ( °F °C ) Dew Point ( °F °C ) Humidity (%) Winds ( mph kmh ) Pressure ( in mb ) Visibility ( mi km ) Precip ( " mm )
1:54 am 01:54 undefined 71 21.7 55 12.8 57 57 undefined N/A 30.15 1021 N/A 0.00 0.00
2:54 am 02:54 undefined 70 21.1 55 12.8 59 59 undefined N/A 30.15 1021 N/A 0.00 0.00
3:54 am 03:54 Mostly Clear 69 20.6 55 12.8 61 61 undefined N/A 30.15 1021 N/A 0.00 0.00
4:54 am 04:54 Mostly Clear 72 22.2 63 17.2 73 73 undefined N/A 30.03 1017 N/A 0.00 0.00
5:54 am 05:54 undefined 67 19.4 53 11.7 61 61 undefined N/A 30.16 1022 N/A 0.00 0.00
6:54 am 06:54 Mostly Cloudy 68 20 52 11.1 57 57 undefined N/A 30.19 1022 N/A 0.00 0.00
7:54 am 07:54 undefined 73 22.8 53 11.7 50 50 undefined N/A 30.19 1022 N/A 0.00 0.00
8:54 am 08:54 undefined 77 25 54 12.2 45 45 undefined N/A 30.20 1023 N/A 0.00 0.00
9:54 am 09:54 undefined 80 26.7 55 12.8 42 42 undefined N/A 30.20 1023 N/A 0.00 0.00
10:54 am 10:54 Mostly Sunny 82 27.8 55 12.8 40 40 undefined N/A 30.20 1023 N/A 0.00 0.00
11:54 am 11:54 undefined 83 28.3 54 12.2 37 37 undefined N/A 30.19 1023 N/A 0.00 0.00
12:54 pm 12:54 Mostly Cloudy 83 28.3 55 12.8 38 38 undefined N/A 30.17 1022 N/A 0.00 0.00
1:54 pm 13:54 undefined 85 29.4 56 13.3 37 37 undefined N/A 30.16 1021 N/A 0.00 0.00
2:54 pm 14:54 Cloudy 54 12.2 50 10 87 87 undefined N/A 30.06 1018 N/A 0.00 0.00
3:54 pm 15:54 undefined 85 29.4 58 14.4 40 40 undefined N/A 30.13 1020 N/A 0.00 0.00
4:54 pm 16:54 undefined 86 30 58 14.4 39 39 undefined N/A 30.13 1020 N/A 0.00 0.00
5:54 pm 17:54 undefined 83 28.3 56 13.3 40 40 undefined N/A 30.13 1020 N/A 0.00 0.00
6:54 pm 18:54 Mostly Cloudy 82 27.8 57 13.9 42 42 undefined N/A 30.12 1020 N/A 0.00 0.00
7:54 pm 19:54 Partly Cloudy 86 30 55 12.8 35 35 undefined N/A 29.84 1010 N/A 0.00 0.00
8:54 pm 20:54 undefined 80 26.7 57 13.9 45 45 undefined N/A 30.13 1020 N/A 0.00 0.00
9:54 pm 21:54 Clear 101 38.1 38 3.3 11 11 undefined N/A 29.73 1007 N/A 0.00 0.00
10:54 pm 22:54 undefined 77 25 56 13.3 48 48 undefined N/A 30.14 1021 N/A 0.00 0.00
11:54 pm 23:54 undefined 75 23.9 56 13.3 52 52 undefined N/A 30.15 1021 N/A 0.00 0.00

Powered by AerisWeather